Location: Napier
(39.4830°S, 176.9170°E)
Time: 12:17:33
(UTC+13:00)

Cosmos 1486 Rocket - Pass Details

Date: 24 January 2019
Orbit: 759 x 783 km, 74.1° (Epoch: 18 February)

Event Time Altitude Azimuth Distance (km) Brightness Sun altitude
Exits shadow 22:36:54 - 337° (NNW) 2,395 6.3 -19.5°
Reaches altitude 10° 22:37:09 10° 337° (NNW) 2,295 6.2 -19.5°
Maximum altitude 22:42:22 77° 251° (WSW) 797 4.1 -20.2°
Drops below altitude 10° 22:47:41 10° 164° (SSE) 2,335 6.9 -20.8°
Sets 22:50:06 0° 162° (SSE) 3,273 7.7 -21.1°
